Location: Larrial
(48.2758°N, 4.5331°W)
Time: 10:20:30
(UTC+00:00)

XW-2F - Pass Details

Date: 01 December 2021
Orbit: 495 x 515 km, 97.5° (Epoch: 15 January)

Event Time Altitude Azimuth Distance (km) Brightness Sun altitude
Rises 17:06:47 0° 150° (SSE) 2,597 ? -6.7°
Reaches altitude 10° 17:08:54 10° 144° (SE) 1,721 ? -7.1°
Maximum altitude 17:12:26 45° 72° (ENE) 709 ? -7.6°
Drops below altitude 10° 17:16:03 10° 359° (N) 1,747 ? -8.1°
Sets 17:18:12 0° 353° (N) 2,642 ? -8.5°
